Погода в Васине

Россия / Смоленская область     54°57′19″N   33°37′00″E
темп.,
°C
ветер,
м/с
пор.,
м/с
влажн.,
%
обл.,
%
осадки,
мм/ч
давл.,
гПа
погр.,
м
13 апреля, вт
вт1300:00+8всв2494100 0.0 102368
03:00+8вюв3496100 0.0 102280
06:00+8юв2594100 0.0 1022104
09:00+12ююв477795 0.0 1021282
12:00+17ю585359 0.0 1021969
15:00+19ююв5846100 0.0 10202364
18:00+15ююв4961100 0.1 1019294
21:00+12ююв278595 0.4 1020199
14 апреля, ср
ср1400:00+12ююв31081100 0.0 1019296
03:00+9юв3588100 0.0 101899
06:00+8ююв389423 0.0 1018179
09:00+12ю3484100 0.0 1018344
12:00+12ююв2484100 0.0 1018317
15:00+14ююз346879 0.3 1017775
18:00+13всв2278100 0.3 101660
21:00+11юв1185100 1.2 101610
15 апреля, чт
чт1500:00+10св2287100 0.1 101528
03:00+9всв3688100 0.3 1015136
06:00+9вюв31089100 0.1 1015352
09:00+10юв2689100 0.4 1016217
12:00+15вюв3662100 0.2 1015869
15:00+13вюв3769100 0.8 1015570
18:00+12св3771100 0.6 1015221
21:00+10св31077100 0.6 1015253
16 апреля, пт
пт1600:00+10св51382100 0.2 1015367
03:00+9всв6138499 0.2 1016455
06:00+7св5129478 0.3 1017424
09:00+9св61185100 0.3 1017492
12:00+10всв71081100 0.4 1018836
15:00+10всв61182100 0.4 1019754
18:00+11всв71374100 0.0 1019784
21:00+10всв7157994 0.4 1020675
17 апреля, сб
сб1700:00+8всв61483100 0.9 1023647
03:00+7св61384100 0.9 1023552
06:00+4св613815 0.0 1025438
09:00+7всв713668 0.0 1026650
12:00+11всв710445 0.0 10271194
15:00+12всв79380 0.0 10271570
18:00+11всв69460 0.0 10281403
21:00+7всв512570 0.0 1030402